Location: Liberec
(50.7830°N, 15.0500°E)
Time: 07:21:53
(UTC+02:00)

HTV-X1 - Pass Details

Date: 21 May 2026
Orbit: 368 x 378 km, 51.6° (Epoch: 26 May)

Event Time Altitude Azimuth Distance (km) Brightness Sun altitude
Rises 22:17:10 0° 285° (WNW) 2,219 ? -10.7°
Reaches altitude 10° 22:19:19 10° 275° (W) 1,369 ? -10.9°
Maximum altitude 22:22:07 33° 209° (SSW) 642 ? -11.2°
Enters shadow 22:23:43 19° 156° (SSE) 944 ? -11.4°
